This demonstration page uses our WeatherBlox Daily Observations layout. Learn more.

Left ArrowRight Arrow

31.84235, -102.49876

Hourly Observations for June 21, 2022

Temp ( °F °C ) Dew Point ( °F °C ) Humidity (%) Winds ( mph kmh ) Pressure ( in mb ) Visibility ( mi km ) Precip ( " mm )
12:53 am 00:53 Clear 82 27.8 49 9.4 32 32 SSE 6 9 29.96 1015 10 16 0.00 0.00
1:53 am 01:53 Clear 82 27.8 51 10.6 34 34 SSE 8 13 29.96 1014 10 16 0.00 0.00
2:53 am 02:53 Clear 80 26.7 52 11.1 38 38 SSE 8 13 29.96 1015 10 16 0.00 0.00
3:53 am 03:53 Clear 80 26.7 54 12.2 41 41 SSE 10 17 29.96 1015 10 16 0.00 0.00
4:53 am 04:53 Clear 78 25.6 55 12.8 45 45 SSE 12 19 29.97 1015 10 16 0.00 0.00
5:53 am 05:53 Clear 78 25.6 56 13.3 47 47 SSE 12 19 29.98 1015 10 16 0.00 0.00
6:53 am 06:53 Sunny 76 24.4 58 14.4 54 54 SSE 10 17 30.01 1016 10 16 0.00 0.00
7:53 am 07:53 Sunny 77 25 60 15.6 56 56 SSE 14 22 30.04 1017 10 16 0.00 0.00
8:53 am 08:53 Sunny 79 26.1 62 16.7 56 56 S 15 24 30.05 1018 10 16 0.00 0.00
9:53 am 09:53 Sunny 82 27.8 61 16.1 49 49 S 17 28 30.07 1018 10 16 0.00 0.00
10:53 am 10:53 Sunny 85 29.4 57 13.9 39 39 S 18 30 30.06 1018 10 16 0.00 0.00
11:53 am 11:53 Sunny 89 31.7 56 13.3 33 33 SSE 18 30 30.06 1018 10 16 0.00 0.00
12:53 pm 12:53 Sunny 90 32.2 55 12.8 31 31 S 20 31 30.06 1018 10 16 0.00 0.00
1:34 pm 13:34 Sunny 90 32.2 54 12.2 29 29 SSE 14 22 29.96 1014 10 16 0.00 0.00
1:53 pm 13:53 Sunny 92 33.3 54 12.2 28 28 SSE 18 30 30.04 1017 10 16 0.00 0.00
2:53 pm 14:53 Sunny 92 33.3 51 10.6 25 25 S 8 13 30.01 1016 10 16 0.00 0.00
3:53 pm 15:53 Mostly Sunny 94 34.4 52 11.1 24 24 S 9 15 29.99 1016 10 16 0.00 0.00
4:53 pm 16:53 Mostly Sunny 94 34.4 50 10 22 22 SSE 12 19 29.98 1015 10 16 0.00 0.00
5:53 pm 17:53 Mostly Sunny 95 35 49 9.4 21 21 ESE 18 30 29.96 1015 10 16 0.00 0.00
6:53 pm 18:53 Mostly Sunny 94 34.4 50 10 22 22 SSE 16 26 29.95 1014 10 16 0.00 0.00
7:53 pm 19:53 Sunny 93 33.9 47 8.3 21 21 SE 14 22 29.96 1015 10 16 0.00 0.00
8:53 pm 20:53 Partly Cloudy 91 32.8 50 10 25 25 SSE 10 17 29.97 1015 10 16 0.00 0.00
9:53 pm 21:53 Clear 88 31.1 50 10 27 27 SSE 9 15 29.98 1015 10 16 0.00 0.00
10:53 pm 22:53 Clear 86 30 50 10 29 29 S 7 11 30.00 1016 10 16 0.00 0.00
11:53 pm 23:53 Clear 86 30 51 10.6 30 30 S 9 15 30.01 1016 10 16 0.00 0.00

Powered by AerisWeather